Year,Month,Day,Hour,Minute,Value (Times are PST for temperature in C)
2011,08,11,00,00,12.20
2011,08,11,00,01,12.20
2011,08,11,00,02,12.20
2011,08,11,00,03,12.20
2011,08,11,00,04,12.20
2011,08,11,00,05,12.20
2011,08,11,00,06,12.20
2011,08,11,00,07,12.20
2011,08,11,00,08,12.10
2011,08,11,00,09,12.10
2011,08,11,00,10,12.10
2011,08,11,00,11,12.10
2011,08,11,00,12,12.10
2011,08,11,00,13,12.10
2011,08,11,00,14,12.10
2011,08,11,00,15,12.10
2011,08,11,00,16,12.10
2011,08,11,00,17,12.10
2011,08,11,00,18,12.10
2011,08,11,00,19,12.00
2011,08,11,00,20,12.00
2011,08,11,00,21,12.00
2011,08,11,00,22,11.90
2011,08,11,00,23,11.90
2011,08,11,00,24,11.90
2011,08,11,00,25,11.90
2011,08,11,00,26,11.90
2011,08,11,00,27,11.90
2011,08,11,00,28,11.90
2011,08,11,00,29,11.90
2011,08,11,00,30,11.90
2011,08,11,00,31,11.90
2011,08,11,00,32,11.80
2011,08,11,00,33,11.80
2011,08,11,00,34,11.80
2011,08,11,00,35,11.80
2011,08,11,00,36,11.80
2011,08,11,00,37,11.80
2011,08,11,00,38,11.80
2011,08,11,00,39,11.80
2011,08,11,00,40,11.80
2011,08,11,00,41,11.80
2011,08,11,00,42,11.80
2011,08,11,00,43,11.80
2011,08,11,00,44,11.80
2011,08,11,00,45,11.70
2011,08,11,00,46,11.70
2011,08,11,00,47,11.70
2011,08,11,00,48,11.70
2011,08,11,00,49,11.70
2011,08,11,00,50,11.70
2011,08,11,00,51,11.70
2011,08,11,00,52,11.70
2011,08,11,00,53,11.70
2011,08,11,00,54,11.60
2011,08,11,00,55,11.60
2011,08,11,00,56,11.60
2011,08,11,00,57,11.60
2011,08,11,00,58,11.60
2011,08,11,00,59,11.60
2011,08,11,01,00,11.60
2011,08,11,01,01,11.60
2011,08,11,01,02,11.60
2011,08,11,01,03,11.60
2011,08,11,01,04,11.60
2011,08,11,01,05,11.50
2011,08,11,01,06,11.50
2011,08,11,01,07,11.50
2011,08,11,01,08,11.50
2011,08,11,01,09,11.40
2011,08,11,01,10,11.40
2011,08,11,01,11,11.40
2011,08,11,01,12,11.40
2011,08,11,01,13,11.40
2011,08,11,01,14,11.30
2011,08,11,01,15,11.30
2011,08,11,01,16,11.30
2011,08,11,01,17,11.30
2011,08,11,01,18,11.30
2011,08,11,01,19,11.30
2011,08,11,01,20,11.30
2011,08,11,01,21,11.30
2011,08,11,01,22,11.30
2011,08,11,01,23,11.30
2011,08,11,01,24,11.30
2011,08,11,01,25,11.30
2011,08,11,01,26,11.30
2011,08,11,01,27,11.30
2011,08,11,01,28,11.30
2011,08,11,01,29,11.20
2011,08,11,01,30,11.20
2011,08,11,01,31,11.20
2011,08,11,01,32,11.20
2011,08,11,01,33,11.20
2011,08,11,01,34,11.20
2011,08,11,01,35,11.20
2011,08,11,01,36,11.20
2011,08,11,01,37,11.20
2011,08,11,01,38,11.20
2011,08,11,01,39,11.10
2011,08,11,01,40,11.10
2011,08,11,01,41,11.10
2011,08,11,01,42,11.10
2011,08,11,01,43,11.10
2011,08,11,01,44,11.10
2011,08,11,01,45,11.10
2011,08,11,01,46,11.10
2011,08,11,01,47,11.10
2011,08,11,01,48,11.10
2011,08,11,01,49,11.10
2011,08,11,01,50,11.10
2011,08,11,01,51,11.10
2011,08,11,01,52,11.10
2011,08,11,01,53,11.10
2011,08,11,01,54,11.10
2011,08,11,01,55,11.10
2011,08,11,01,56,11.10
2011,08,11,01,57,11.10
2011,08,11,01,58,11.10
2011,08,11,01,59,11.10
2011,08,11,02,00,11.10
2011,08,11,02,01,11.00
2011,08,11,02,02,11.00
2011,08,11,02,03,11.00
2011,08,11,02,04,11.00
2011,08,11,02,05,11.00
2011,08,11,02,06,11.00
2011,08,11,02,07,11.00
2011,08,11,02,08,11.00
2011,08,11,02,09,11.00
2011,08,11,02,10,11.00
2011,08,11,02,11,11.00
2011,08,11,02,12,11.00
2011,08,11,02,13,10.90
2011,08,11,02,14,10.90
2011,08,11,02,15,10.90
2011,08,11,02,16,10.90
2011,08,11,02,17,10.90
2011,08,11,02,18,10.90
2011,08,11,02,19,10.90
2011,08,11,02,20,10.90
2011,08,11,02,21,10.90
2011,08,11,02,22,10.90
2011,08,11,02,23,10.90
2011,08,11,02,24,10.90
2011,08,11,02,25,10.90
2011,08,11,02,26,10.90
2011,08,11,02,27,10.80
2011,08,11,02,28,10.80
2011,08,11,02,29,10.80
2011,08,11,02,30,10.80
2011,08,11,02,31,10.80
2011,08,11,02,32,10.80
2011,08,11,02,33,10.80
2011,08,11,02,34,10.80
2011,08,11,02,35,10.80
2011,08,11,02,36,10.80
2011,08,11,02,37,10.80
2011,08,11,02,38,10.80
2011,08,11,02,39,10.80
2011,08,11,02,40,10.80
2011,08,11,02,41,10.80
2011,08,11,02,42,10.80
2011,08,11,02,43,10.80
2011,08,11,02,44,10.70
2011,08,11,02,45,10.70
2011,08,11,02,46,10.70
2011,08,11,02,47,10.70
2011,08,11,02,48,10.70
2011,08,11,02,49,10.70
2011,08,11,02,50,10.70
2011,08,11,02,51,10.70
2011,08,11,02,52,10.70
2011,08,11,02,53,10.70
2011,08,11,02,54,10.60
2011,08,11,02,55,10.60
2011,08,11,02,56,10.60
2011,08,11,02,57,10.60
2011,08,11,02,58,10.60
2011,08,11,02,59,10.60
2011,08,11,03,00,10.60
2011,08,11,03,01,10.60
2011,08,11,03,02,10.60
2011,08,11,03,03,10.50
2011,08,11,03,04,10.50
2011,08,11,03,05,10.50
2011,08,11,03,06,10.50
2011,08,11,03,07,10.50
2011,08,11,03,08,10.50
2011,08,11,03,09,10.50
2011,08,11,03,10,10.50
2011,08,11,03,11,10.40
2011,08,11,03,12,10.40
2011,08,11,03,13,10.40
2011,08,11,03,14,10.40
2011,08,11,03,15,10.40
2011,08,11,03,16,10.40
2011,08,11,03,17,10.30
2011,08,11,03,18,10.30
2011,08,11,03,19,10.30
2011,08,11,03,20,10.30
2011,08,11,03,21,10.30
2011,08,11,03,22,10.30
2011,08,11,03,23,10.30
2011,08,11,03,24,10.30
2011,08,11,03,25,10.30
2011,08,11,03,26,10.20
2011,08,11,03,27,10.20
2011,08,11,03,28,10.20
2011,08,11,03,29,10.20
2011,08,11,03,30,10.20
2011,08,11,03,31,10.20
2011,08,11,03,32,10.20
2011,08,11,03,33,10.20
2011,08,11,03,34,10.20
2011,08,11,03,35,10.20
2011,08,11,03,36,10.20
2011,08,11,03,37,10.20
2011,08,11,03,38,10.20
2011,08,11,03,39,10.20
2011,08,11,03,40,10.20
2011,08,11,03,41,10.20
2011,08,11,03,42,10.20
2011,08,11,03,43,10.20
2011,08,11,03,44,10.20
2011,08,11,03,45,10.10
2011,08,11,03,46,10.10
2011,08,11,03,47,10.10
2011,08,11,03,48,10.10
2011,08,11,03,49,10.10
2011,08,11,03,50,10.10
2011,08,11,03,51,10.10
2011,08,11,03,52,10.10
2011,08,11,03,53,10.10
2011,08,11,03,54,10.10
2011,08,11,03,55,10.10
2011,08,11,03,56,10.10
2011,08,11,03,57,10.10
2011,08,11,03,58,10.10
2011,08,11,03,59,10.10
2011,08,11,04,00,10.10
2011,08,11,04,01,10.10
2011,08,11,04,02,10.10
2011,08,11,04,03,10.10
2011,08,11,04,04,10.10
2011,08,11,04,05,10.00
2011,08,11,04,06,10.00
2011,08,11,04,07,10.00
2011,08,11,04,08,10.00
2011,08,11,04,09,10.00
2011,08,11,04,10,10.00
2011,08,11,04,11,10.00
2011,08,11,04,12,10.00
2011,08,11,04,13,10.00
2011,08,11,04,14,10.00
2011,08,11,04,15,9.90
2011,08,11,04,16,9.90
2011,08,11,04,17,9.90
2011,08,11,04,18,9.90
2011,08,11,04,19,9.90
2011,08,11,04,20,9.90
2011,08,11,04,21,9.90
2011,08,11,04,22,9.90
2011,08,11,04,23,9.90
2011,08,11,04,24,9.90
2011,08,11,04,25,9.90
2011,08,11,04,26,9.90
2011,08,11,04,27,9.80
2011,08,11,04,28,9.80
2011,08,11,04,29,9.80
2011,08,11,04,30,9.80
2011,08,11,04,31,9.80
2011,08,11,04,32,9.80
2011,08,11,04,33,9.80
2011,08,11,04,34,9.80
2011,08,11,04,35,9.80
2011,08,11,04,36,9.80
2011,08,11,04,37,9.80
2011,08,11,04,38,9.70
2011,08,11,04,39,9.70
2011,08,11,04,40,9.70
2011,08,11,04,41,9.70
2011,08,11,04,42,9.60
2011,08,11,04,43,9.60
2011,08,11,04,44,9.60
2011,08,11,04,45,9.60
2011,08,11,04,46,9.60
2011,08,11,04,47,9.60
2011,08,11,04,48,9.60
2011,08,11,04,49,9.60
2011,08,11,04,50,9.60
2011,08,11,04,51,9.70
2011,08,11,04,52,9.70
2011,08,11,04,53,9.60
2011,08,11,04,54,9.60
2011,08,11,04,55,9.60
2011,08,11,04,56,9.70
2011,08,11,04,57,9.60
2011,08,11,04,58,9.60
2011,08,11,04,59,9.60
2011,08,11,05,00,9.60
2011,08,11,05,01,9.60
2011,08,11,05,02,9.60
2011,08,11,05,03,9.60
2011,08,11,05,04,9.60
2011,08,11,05,05,9.60
2011,08,11,05,06,9.60
2011,08,11,05,07,9.60
2011,08,11,05,08,9.50
2011,08,11,05,09,9.50
2011,08,11,05,10,9.50
2011,08,11,05,11,9.50
2011,08,11,05,12,9.50
2011,08,11,05,13,9.50
2011,08,11,05,14,9.50
2011,08,11,05,15,9.50
2011,08,11,05,16,9.50
2011,08,11,05,17,9.50
2011,08,11,05,18,9.50
2011,08,11,05,19,9.50
2011,08,11,05,20,9.50
2011,08,11,05,21,9.50
2011,08,11,05,22,9.50
2011,08,11,05,23,9.50
2011,08,11,05,24,9.50
2011,08,11,05,25,9.50
2011,08,11,05,26,9.50
2011,08,11,05,27,9.50
2011,08,11,05,28,9.50
2011,08,11,05,29,9.50
2011,08,11,05,30,9.50
2011,08,11,05,31,9.40
2011,08,11,05,32,9.40
2011,08,11,05,33,9.40
2011,08,11,05,34,9.40
2011,08,11,05,35,9.40
2011,08,11,05,36,9.30
2011,08,11,05,37,9.30
2011,08,11,05,38,9.30
2011,08,11,05,39,9.30
2011,08,11,05,40,9.30
2011,08,11,05,41,9.30
2011,08,11,05,42,9.30
2011,08,11,05,43,9.30
2011,08,11,05,44,9.30
2011,08,11,05,45,9.30
2011,08,11,05,46,9.30
2011,08,11,05,47,9.30
2011,08,11,05,48,9.30
2011,08,11,05,49,9.30
2011,08,11,05,50,9.30
2011,08,11,05,51,9.30
2011,08,11,05,52,9.40
2011,08,11,05,53,9.40
2011,08,11,05,54,9.40
2011,08,11,05,55,9.40
2011,08,11,05,56,9.40
2011,08,11,05,57,9.40
2011,08,11,05,58,9.40
2011,08,11,05,59,9.40
2011,08,11,06,00,9.40
2011,08,11,06,01,9.40
2011,08,11,06,02,9.40
2011,08,11,06,03,9.50
2011,08,11,06,04,9.50
2011,08,11,06,05,9.50
2011,08,11,06,06,9.50
2011,08,11,06,07,9.50
2011,08,11,06,08,9.50
2011,08,11,06,09,9.50
2011,08,11,06,10,9.60
2011,08,11,06,11,9.60
2011,08,11,06,12,9.60
2011,08,11,06,13,9.60
2011,08,11,06,14,9.60
2011,08,11,06,15,9.60
2011,08,11,06,16,9.60
2011,08,11,06,17,9.60
2011,08,11,06,18,9.60
2011,08,11,06,19,9.60
2011,08,11,06,20,9.60
2011,08,11,06,21,9.60
2011,08,11,06,22,9.70
2011,08,11,06,23,9.70
2011,08,11,06,24,9.70
2011,08,11,06,25,9.70
2011,08,11,06,26,9.80
2011,08,11,06,27,9.80
2011,08,11,06,28,9.80
2011,08,11,06,29,9.80
2011,08,11,06,30,9.80
2011,08,11,06,31,9.80
2011,08,11,06,32,9.90
2011,08,11,06,33,9.90
2011,08,11,06,34,9.90
2011,08,11,06,35,10.00
2011,08,11,06,36,10.00
2011,08,11,06,37,10.00
2011,08,11,06,38,10.10
2011,08,11,06,39,10.10
2011,08,11,06,40,10.10
2011,08,11,06,41,10.10
2011,08,11,06,42,10.10
2011,08,11,06,43,10.10
2011,08,11,06,44,10.20
2011,08,11,06,45,10.20
2011,08,11,06,46,10.20
2011,08,11,06,47,10.20
2011,08,11,06,48,10.20
2011,08,11,06,49,10.20
2011,08,11,06,50,10.20
2011,08,11,06,51,10.30
2011,08,11,06,52,10.30
2011,08,11,06,53,10.30
2011,08,11,06,54,10.30
2011,08,11,06,55,10.30
2011,08,11,06,56,10.30
2011,08,11,06,57,10.40
2011,08,11,06,58,10.40
2011,08,11,06,59,10.40
2011,08,11,07,00,10.40
2011,08,11,07,01,10.50
2011,08,11,07,02,10.50
2011,08,11,07,03,10.50
2011,08,11,07,04,10.50
2011,08,11,07,05,10.60
2011,08,11,07,06,10.60
2011,08,11,07,07,10.60
2011,08,11,07,08,10.60
2011,08,11,07,09,10.60
2011,08,11,07,10,10.60
2011,08,11,07,11,10.70
2011,08,11,07,12,10.70
2011,08,11,07,13,10.70
2011,08,11,07,14,10.70
2011,08,11,07,15,10.70
2011,08,11,07,16,10.80
2011,08,11,07,17,10.80
2011,08,11,07,18,10.80
2011,08,11,07,19,10.80
2011,08,11,07,20,10.80
2011,08,11,07,21,10.80
2011,08,11,07,22,10.80
2011,08,11,07,23,10.80
2011,08,11,07,24,10.90
2011,08,11,07,25,10.90
2011,08,11,07,26,10.90
2011,08,11,07,27,11.00
2011,08,11,07,28,11.00
2011,08,11,07,29,11.10
2011,08,11,07,30,11.10
2011,08,11,07,31,11.10
2011,08,11,07,32,11.20
2011,08,11,07,33,11.20
2011,08,11,07,34,11.30
2011,08,11,07,35,11.30
2011,08,11,07,36,11.30
2011,08,11,07,37,11.40
2011,08,11,07,38,11.40
2011,08,11,07,39,11.50
2011,08,11,07,40,11.50
2011,08,11,07,41,11.60
2011,08,11,07,42,11.60
2011,08,11,07,43,11.60
2011,08,11,07,44,11.70
2011,08,11,07,45,11.80
2011,08,11,07,46,11.80
2011,08,11,07,47,11.90
2011,08,11,07,48,11.90
2011,08,11,07,49,11.90
2011,08,11,07,50,12.00
2011,08,11,07,51,12.00
2011,08,11,07,52,12.10
2011,08,11,07,53,12.10
2011,08,11,07,54,12.20
2011,08,11,07,55,12.20
2011,08,11,07,56,12.20
2011,08,11,07,57,12.20
2011,08,11,07,58,12.30
2011,08,11,07,59,12.30
2011,08,11,08,00,12.30
2011,08,11,08,01,12.30
2011,08,11,08,02,12.30
2011,08,11,08,03,12.40
2011,08,11,08,04,12.40
2011,08,11,08,05,12.40
2011,08,11,08,06,12.50
2011,08,11,08,07,12.50
2011,08,11,08,08,12.50
2011,08,11,08,09,12.60
2011,08,11,08,10,12.60
2011,08,11,08,11,12.60
2011,08,11,08,12,12.70
2011,08,11,08,13,12.70
2011,08,11,08,14,12.70
2011,08,11,08,15,12.70
2011,08,11,08,16,12.80
2011,08,11,08,17,12.80
2011,08,11,08,18,12.80
2011,08,11,08,19,12.90
2011,08,11,08,20,12.90
2011,08,11,08,21,13.00
2011,08,11,08,22,13.10
2011,08,11,08,23,13.10
2011,08,11,08,24,13.20
2011,08,11,08,25,13.20
2011,08,11,08,26,13.30
2011,08,11,08,27,13.30
2011,08,11,08,28,13.40
2011,08,11,08,29,13.40
2011,08,11,08,30,13.40
2011,08,11,08,31,13.50
2011,08,11,08,32,13.50
2011,08,11,08,33,13.60
2011,08,11,08,34,13.60
2011,08,11,08,35,13.60
2011,08,11,08,36,13.70
2011,08,11,08,37,13.70
2011,08,11,08,38,13.80
2011,08,11,08,39,13.90
2011,08,11,08,40,14.00
2011,08,11,08,41,14.00
2011,08,11,08,42,14.10
2011,08,11,08,43,14.20
2011,08,11,08,44,14.30
2011,08,11,08,45,14.30
2011,08,11,08,46,14.40
2011,08,11,08,47,14.40
2011,08,11,08,48,14.40
2011,08,11,08,49,14.50
2011,08,11,08,50,14.50
2011,08,11,08,51,14.60
2011,08,11,08,52,14.60
2011,08,11,08,53,14.60
2011,08,11,08,54,14.70
2011,08,11,08,55,14.70
2011,08,11,08,56,14.70
2011,08,11,08,57,14.70
2011,08,11,08,58,14.80
2011,08,11,08,59,14.80
2011,08,11,09,00,14.80
2011,08,11,09,01,14.90
2011,08,11,09,02,14.90
2011,08,11,09,03,15.00
2011,08,11,09,04,15.00
2011,08,11,09,05,15.00
2011,08,11,09,06,15.00
2011,08,11,09,07,15.00
2011,08,11,09,08,15.00
2011,08,11,09,09,15.10
2011,08,11,09,10,15.20
2011,08,11,09,11,15.30
2011,08,11,09,12,15.30
2011,08,11,09,13,15.40
2011,08,11,09,14,15.40
2011,08,11,09,15,15.50
2011,08,11,09,16,15.60
2011,08,11,09,17,15.60
2011,08,11,09,18,15.70
2011,08,11,09,19,15.70
2011,08,11,09,20,15.80
2011,08,11,09,21,15.90
2011,08,11,09,22,15.90
2011,08,11,09,23,16.00
2011,08,11,09,24,16.20
2011,08,11,09,25,16.20
2011,08,11,09,26,16.30
2011,08,11,09,27,16.40
2011,08,11,09,28,16.50
2011,08,11,09,29,16.50
2011,08,11,09,30,16.60
2011,08,11,09,31,16.60
2011,08,11,09,32,16.50
2011,08,11,09,33,16.50
2011,08,11,09,34,16.50
2011,08,11,09,35,16.60
2011,08,11,09,36,16.60
2011,08,11,09,37,16.60
2011,08,11,09,38,16.60
2011,08,11,09,39,16.70
2011,08,11,09,40,16.70
2011,08,11,09,41,16.70
2011,08,11,09,42,16.70
2011,08,11,09,43,16.80
2011,08,11,09,44,16.80
2011,08,11,09,45,16.80
2011,08,11,09,46,16.80
2011,08,11,09,47,16.80
2011,08,11,09,48,16.90
2011,08,11,09,49,16.90
2011,08,11,09,50,16.90
2011,08,11,09,51,16.90
2011,08,11,09,52,17.00
2011,08,11,09,53,17.10
2011,08,11,09,54,17.10
2011,08,11,09,55,17.20
2011,08,11,09,56,17.20
2011,08,11,09,57,17.20
2011,08,11,09,58,17.20
2011,08,11,09,59,17.20
2011,08,11,10,00,17.20
2011,08,11,10,01,17.30
2011,08,11,10,02,17.30
2011,08,11,10,03,17.40
2011,08,11,10,04,17.40
2011,08,11,10,05,17.40
2011,08,11,10,06,17.50
2011,08,11,10,07,17.50
2011,08,11,10,08,17.50
2011,08,11,10,09,17.50
2011,08,11,10,10,17.40
2011,08,11,10,11,17.40
2011,08,11,10,12,17.40
2011,08,11,10,13,17.40
2011,08,11,10,14,17.40
2011,08,11,10,15,17.50
2011,08,11,10,16,17.50
2011,08,11,10,17,17.60
2011,08,11,10,18,17.60
2011,08,11,10,19,17.70
2011,08,11,10,20,17.80
2011,08,11,10,21,17.90
2011,08,11,10,22,18.00
2011,08,11,10,23,18.10
2011,08,11,10,24,18.20
2011,08,11,10,25,18.30
2011,08,11,10,26,18.30
2011,08,11,10,27,18.30
2011,08,11,10,28,18.40
2011,08,11,10,29,18.40
2011,08,11,10,30,18.40
2011,08,11,10,31,18.40
2011,08,11,10,32,18.30
2011,08,11,10,33,18.30
2011,08,11,10,34,18.20
2011,08,11,10,35,18.20
2011,08,11,10,36,18.20
2011,08,11,10,37,18.20
2011,08,11,10,38,18.10
2011,08,11,10,39,18.10
2011,08,11,10,40,18.10
2011,08,11,10,41,18.10
2011,08,11,10,42,18.10
2011,08,11,10,43,18.00
2011,08,11,10,44,18.00
2011,08,11,10,45,18.10
2011,08,11,10,46,18.00
2011,08,11,10,47,18.00
2011,08,11,10,48,18.00
2011,08,11,10,49,18.00
2011,08,11,10,50,17.90
2011,08,11,10,51,17.90
2011,08,11,10,52,17.90
2011,08,11,10,53,17.80
2011,08,11,10,54,17.80
2011,08,11,10,55,17.80
2011,08,11,10,56,17.80
2011,08,11,10,57,17.80
2011,08,11,10,58,17.80
2011,08,11,10,59,17.80
2011,08,11,11,00,17.80
2011,08,11,11,01,17.80
2011,08,11,11,02,17.80
2011,08,11,11,03,17.80
2011,08,11,11,04,17.80
2011,08,11,11,05,17.90
2011,08,11,11,06,17.90
2011,08,11,11,07,17.90
2011,08,11,11,08,18.00
2011,08,11,11,09,18.00
2011,08,11,11,10,18.10
2011,08,11,11,11,18.20
2011,08,11,11,12,18.20
2011,08,11,11,13,18.20
2011,08,11,11,14,18.30
2011,08,11,11,15,18.40
2011,08,11,11,16,18.40
2011,08,11,11,17,18.50
2011,08,11,11,18,18.50
2011,08,11,11,19,18.50
2011,08,11,11,20,18.60
2011,08,11,11,21,18.60
2011,08,11,11,22,18.60
2011,08,11,11,23,18.70
2011,08,11,11,24,18.70
2011,08,11,11,25,18.70
2011,08,11,11,26,18.80
2011,08,11,11,27,18.80
2011,08,11,11,28,18.80
2011,08,11,11,29,18.70
2011,08,11,11,30,18.70
2011,08,11,11,31,18.70
2011,08,11,11,32,18.70
2011,08,11,11,33,18.70
2011,08,11,11,34,18.80
2011,08,11,11,35,18.80
2011,08,11,11,36,18.80
2011,08,11,11,37,18.80
2011,08,11,11,38,18.80
2011,08,11,11,39,18.90
2011,08,11,11,40,18.90
2011,08,11,11,41,19.00
2011,08,11,11,42,19.00
2011,08,11,11,43,19.00
2011,08,11,11,44,19.10
2011,08,11,11,45,19.10
2011,08,11,11,46,19.10
2011,08,11,11,47,19.20
2011,08,11,11,48,19.20
2011,08,11,11,49,19.30
2011,08,11,11,50,19.30
2011,08,11,11,51,19.30
2011,08,11,11,52,19.30
2011,08,11,11,53,19.20
2011,08,11,11,54,19.20
2011,08,11,11,55,19.20
2011,08,11,11,56,19.20
2011,08,11,11,57,19.30
2011,08,11,11,58,19.30
2011,08,11,11,59,19.30
2011,08,11,12,00,19.30
2011,08,11,12,01,19.40
2011,08,11,12,02,19.40
2011,08,11,12,03,19.50
2011,08,11,12,04,19.50
2011,08,11,12,05,19.60
2011,08,11,12,06,19.60
2011,08,11,12,07,19.70
2011,08,11,12,08,19.60
2011,08,11,12,09,19.50
2011,08,11,12,10,19.50
2011,08,11,12,11,19.40
2011,08,11,12,12,19.40
2011,08,11,12,13,19.30
2011,08,11,12,14,19.30
2011,08,11,12,15,19.30
2011,08,11,12,16,19.20
2011,08,11,12,17,19.30
2011,08,11,12,18,19.30
2011,08,11,12,19,19.40
2011,08,11,12,20,19.40
2011,08,11,12,21,19.50
2011,08,11,12,22,19.50
2011,08,11,12,23,19.60
2011,08,11,12,24,19.60
2011,08,11,12,25,19.60
2011,08,11,12,26,19.60
2011,08,11,12,27,19.70
2011,08,11,12,28,19.70
2011,08,11,12,29,19.70
2011,08,11,12,30,19.70
2011,08,11,12,31,19.70
2011,08,11,12,32,19.70
2011,08,11,12,33,19.70
2011,08,11,12,34,19.70
2011,08,11,12,35,19.70
2011,08,11,12,36,19.70
2011,08,11,12,37,19.80
2011,08,11,12,38,19.80
2011,08,11,12,39,19.80
2011,08,11,12,40,19.80
2011,08,11,12,41,19.90
2011,08,11,12,42,19.90
2011,08,11,12,43,19.90
2011,08,11,12,44,19.90
2011,08,11,12,45,19.90
2011,08,11,12,46,19.90
2011,08,11,12,47,19.90
2011,08,11,12,48,19.90
2011,08,11,12,49,19.90
2011,08,11,12,50,20.00
2011,08,11,12,51,19.90
2011,08,11,12,52,20.00
2011,08,11,12,53,20.00
2011,08,11,12,54,20.00
2011,08,11,12,55,20.00
2011,08,11,12,56,20.00
2011,08,11,12,57,20.00
2011,08,11,12,58,20.10
2011,08,11,12,59,20.10
2011,08,11,13,00,20.10
2011,08,11,13,01,20.10
2011,08,11,13,02,20.10
2011,08,11,13,03,20.00
2011,08,11,13,04,20.00
2011,08,11,13,05,20.00
2011,08,11,13,06,20.00
2011,08,11,13,07,20.00
2011,08,11,13,08,20.00
2011,08,11,13,09,20.10
2011,08,11,13,10,20.10
2011,08,11,13,11,20.10
2011,08,11,13,12,20.10
2011,08,11,13,13,20.10
2011,08,11,13,14,20.10
2011,08,11,13,15,20.00
2011,08,11,13,16,20.00
2011,08,11,13,17,20.00
2011,08,11,13,18,19.90
2011,08,11,13,19,19.90
2011,08,11,13,20,19.80
2011,08,11,13,21,19.80
2011,08,11,13,22,19.80
2011,08,11,13,23,19.80
2011,08,11,13,24,19.80
2011,08,11,13,25,19.80
2011,08,11,13,26,19.70
2011,08,11,13,27,19.70
2011,08,11,13,28,19.70
2011,08,11,13,29,19.70
2011,08,11,13,30,19.80
2011,08,11,13,31,19.80
2011,08,11,13,32,19.80
2011,08,11,13,33,19.80
2011,08,11,13,34,19.80
2011,08,11,13,35,19.90
2011,08,11,13,36,19.90
2011,08,11,13,37,19.90
2011,08,11,13,38,19.90
2011,08,11,13,39,19.90
2011,08,11,13,40,19.90
2011,08,11,13,41,20.00
2011,08,11,13,42,20.00
2011,08,11,13,43,20.10
2011,08,11,13,44,20.00
2011,08,11,13,45,20.00
2011,08,11,13,46,20.00
2011,08,11,13,47,20.00
2011,08,11,13,48,20.10
2011,08,11,13,49,20.20
2011,08,11,13,50,20.20
2011,08,11,13,51,20.20
2011,08,11,13,52,20.20
2011,08,11,13,53,20.10
2011,08,11,13,54,20.00
2011,08,11,13,55,20.00
2011,08,11,13,56,20.00
2011,08,11,13,57,20.00
2011,08,11,13,58,20.10
2011,08,11,13,59,20.10
2011,08,11,14,00,20.20
2011,08,11,14,01,20.30
2011,08,11,14,02,20.30
2011,08,11,14,03,20.40
2011,08,11,14,04,20.50
2011,08,11,14,05,20.50
2011,08,11,14,06,20.50
2011,08,11,14,07,20.50
2011,08,11,14,08,20.40
2011,08,11,14,09,20.30
2011,08,11,14,10,20.30
2011,08,11,14,11,20.30
2011,08,11,14,12,20.30
2011,08,11,14,13,20.30
2011,08,11,14,14,20.30
2011,08,11,14,15,20.30
2011,08,11,14,16,20.30
2011,08,11,14,17,20.20
2011,08,11,14,18,20.20
2011,08,11,14,19,20.20
2011,08,11,14,20,20.20
2011,08,11,14,21,20.20
2011,08,11,14,22,20.20
2011,08,11,14,23,20.10
2011,08,11,14,24,20.10
2011,08,11,14,25,20.10
2011,08,11,14,26,20.10
2011,08,11,14,27,20.00
2011,08,11,14,28,20.10
2011,08,11,14,29,20.10
2011,08,11,14,30,20.20
2011,08,11,14,31,20.30
2011,08,11,14,32,20.30
2011,08,11,14,33,20.30
2011,08,11,14,34,20.30
2011,08,11,14,35,20.40
2011,08,11,14,36,20.40
2011,08,11,14,37,20.40
2011,08,11,14,38,20.40
2011,08,11,14,39,20.40
2011,08,11,14,40,20.50
2011,08,11,14,41,20.60
2011,08,11,14,42,20.60
2011,08,11,14,43,20.70
2011,08,11,14,44,20.70
2011,08,11,14,45,20.60
2011,08,11,14,46,20.60
2011,08,11,14,47,20.60
2011,08,11,14,48,20.60
2011,08,11,14,49,20.70
2011,08,11,14,50,20.70
2011,08,11,14,51,20.80
2011,08,11,14,52,20.90
2011,08,11,14,53,20.90
2011,08,11,14,54,21.00
2011,08,11,14,55,21.10
2011,08,11,14,56,21.00
2011,08,11,14,57,21.00
2011,08,11,14,58,20.90
2011,08,11,14,59,20.80
2011,08,11,15,00,20.70
2011,08,11,15,01,20.70
2011,08,11,15,02,20.60
2011,08,11,15,03,20.60
2011,08,11,15,04,20.60
2011,08,11,15,05,20.60
2011,08,11,15,06,20.60
2011,08,11,15,07,20.70
2011,08,11,15,08,20.70
2011,08,11,15,09,20.70
2011,08,11,15,10,20.70
2011,08,11,15,11,20.70
2011,08,11,15,12,20.80
2011,08,11,15,13,20.80
2011,08,11,15,14,20.80
2011,08,11,15,15,20.80
2011,08,11,15,16,20.80
2011,08,11,15,17,20.80
2011,08,11,15,18,20.90
2011,08,11,15,19,20.90
2011,08,11,15,20,20.90
2011,08,11,15,21,20.80
2011,08,11,15,22,20.80
2011,08,11,15,23,20.80
2011,08,11,15,24,20.80
2011,08,11,15,25,20.80
2011,08,11,15,26,20.80
2011,08,11,15,27,20.80
2011,08,11,15,28,20.80
2011,08,11,15,29,20.80
2011,08,11,15,30,20.80
2011,08,11,15,31,20.80
2011,08,11,15,32,20.80
2011,08,11,15,33,20.80
2011,08,11,15,34,20.80
2011,08,11,15,35,20.80
2011,08,11,15,36,20.90
2011,08,11,15,37,21.00
2011,08,11,15,38,21.00
2011,08,11,15,39,21.00
2011,08,11,15,40,21.00
2011,08,11,15,41,21.00
2011,08,11,15,42,21.00
2011,08,11,15,43,21.00
2011,08,11,15,44,21.00
2011,08,11,15,45,21.10
2011,08,11,15,46,21.10
2011,08,11,15,47,21.10
2011,08,11,15,48,21.10
2011,08,11,15,49,21.10
2011,08,11,15,50,21.10
2011,08,11,15,51,21.20
2011,08,11,15,52,21.20
2011,08,11,15,53,21.20
2011,08,11,15,54,21.20
2011,08,11,15,55,21.10
2011,08,11,15,56,21.10
2011,08,11,15,57,21.10
2011,08,11,15,58,21.00
2011,08,11,15,59,21.00
2011,08,11,16,00,20.90
2011,08,11,16,01,20.90
2011,08,11,16,02,20.80
2011,08,11,16,03,20.80
2011,08,11,16,04,20.80
2011,08,11,16,05,20.90
2011,08,11,16,06,20.90
2011,08,11,16,07,20.90
2011,08,11,16,08,20.90
2011,08,11,16,09,20.90
2011,08,11,16,10,20.90
2011,08,11,16,11,21.00
2011,08,11,16,12,21.00
2011,08,11,16,13,21.10
2011,08,11,16,14,21.10
2011,08,11,16,15,21.10
2011,08,11,16,16,21.20
2011,08,11,16,17,21.20
2011,08,11,16,18,21.20
2011,08,11,16,19,21.20
2011,08,11,16,20,21.20
2011,08,11,16,21,21.20
2011,08,11,16,22,21.10
2011,08,11,16,23,21.20
2011,08,11,16,24,21.20
2011,08,11,16,25,21.20
2011,08,11,16,26,21.10
2011,08,11,16,27,21.10
2011,08,11,16,28,21.20
2011,08,11,16,29,21.20
2011,08,11,16,30,21.10
2011,08,11,16,31,21.10
2011,08,11,16,32,21.20
2011,08,11,16,33,21.30
2011,08,11,16,34,21.30
2011,08,11,16,35,21.40
2011,08,11,16,36,21.40
2011,08,11,16,37,21.50
2011,08,11,16,38,21.50
2011,08,11,16,39,21.50
2011,08,11,16,40,21.50
2011,08,11,16,41,21.50
2011,08,11,16,42,21.50
2011,08,11,16,43,21.50
2011,08,11,16,44,21.60
2011,08,11,16,45,21.60
2011,08,11,16,46,21.70
2011,08,11,16,47,21.70
2011,08,11,16,48,21.80
2011,08,11,16,49,21.80
2011,08,11,16,50,21.70
2011,08,11,16,51,21.60
2011,08,11,16,52,21.50
2011,08,11,16,53,21.50
2011,08,11,16,54,21.60
2011,08,11,16,55,21.60
2011,08,11,16,56,21.50
2011,08,11,16,57,21.40
2011,08,11,16,58,21.30
2011,08,11,16,59,21.30
2011,08,11,17,00,21.20
2011,08,11,17,01,21.20
2011,08,11,17,02,21.20
2011,08,11,17,03,21.20
2011,08,11,17,04,21.20
2011,08,11,17,05,21.20
2011,08,11,17,06,21.10
2011,08,11,17,07,21.10
2011,08,11,17,08,21.20
2011,08,11,17,09,21.20
2011,08,11,17,10,21.20
2011,08,11,17,11,21.20
2011,08,11,17,12,21.30
2011,08,11,17,13,21.40
2011,08,11,17,14,21.40
2011,08,11,17,15,21.50
2011,08,11,17,16,21.60
2011,08,11,17,17,21.60
2011,08,11,17,18,21.60
2011,08,11,17,19,21.60
2011,08,11,17,20,21.60
2011,08,11,17,21,21.60
2011,08,11,17,22,21.60
2011,08,11,17,23,21.60
2011,08,11,17,24,21.60
2011,08,11,17,25,21.70